パンスターズ彗星

C/2015 V1 ( PanSTARRS )

English version
Home page
Updated on September 17, 2019

---------------------------------------------------------------------

・ プロフィール

発見日 2015年11月2日
発見光度 20.2等
発見者 Pan-STARRS 1 telescope (Haleakala)

・ 写真集

・ 軌道要素

Epoch 2018 Jan. 2.0 TT = JDT 2458120.5
T 2017 Dec. 17.73696 TT                                 Williams
q   4.2667852            (2000.0)            P               Q
z  -0.0001222      Peri.  179.63927     +0.95388002     +0.22988422
 +/-0.0000003      Node   197.19417     +0.27375592     -0.40230252
e   1.0005216      Incl.  139.22912     +0.12316899     -0.88617489
From 2071 observations 2015 Nov. 2-2019 June 11, mean residual 0".5.

・ 星図

・ 光度変化

        m1 = 5.5 + 5 logΔ + 11.0 log r(t + 180)

---------------------------------------------------------------------

軌道要素はM.P.E.C. 2019-Q135に掲載されたものです。
星図はステラナビゲータ Ver.8 (アストロアーツ) で作成したものです。
光度グラフはComet for Windowsで作成したものです。

---------------------------------------------------------------------

Copyright(C) Seiichi Yoshida (comet@aerith.net). All rights reserved.